| time (UTC) | temp F | wind direction | speed knots | gust knots | rain 1hr in | rain 24hr in | rain mn in | humidity % | barometer mb |
| 20260506050105 | 55 | 95 | 1.7 | 3.5 | 0.00 | 0.00 | 0.00 | 78 | 1015.3 |
| 20260506043030 | 57 | 46 | 0.9 | 3.5 | 0.00 | 0.00 | 0.00 | 76 | 1015.0 |
| 20260506041530 | 57 | 22 | 0.0 | 0.0 | 0.00 | 0.00 | 0.00 | 74 | 1014.9 |
| 20260506040107 | 58 | 22 | 0.0 | 2.6 | 0.00 | 0.00 | 0.00 | 72 | 1014.6 |
| 20260506034530 | 60 | 22 | 0.9 | 2.6 | 0.00 | 0.00 | 0.00 | 70 | 1014.4 |
| 20260506033029 | 61 | 22 | 0.9 | 3.5 | 0.00 | 0.00 | 0.00 | 68 | 1014.2 |
| 20260506031530 | 63 | 46 | 2.6 | 3.5 | 0.00 | 0.00 | 0.00 | 65 | 1014.0 |
| 20260506030032 | 66 | 52 | 2.6 | 3.5 | 0.00 | 0.00 | 0.00 | 63 | 1013.7 |
| 20260506024530 | 68 | 38 | 1.7 | 4.3 | 0.00 | 0.00 | 0.00 | 61 | 1013.5 |
| 20260506023106 | 68 | 65 | 2.6 | 5.2 | 0.00 | 0.00 | 0.00 | 59 | 1013.4 |
| 20260506021531 | 70 | 359 | 2.6 | 6.1 | 0.00 | 0.00 | 0.00 | 58 | 1013.4 |
| 20260506020030 | 70 | 332 | 5.2 | 9.6 | 0.00 | 0.00 | 0.00 | 56 | 1013.2 |
| 20260506013031 | 72 | 322 | 6.1 | 10.4 | 0.00 | 0.00 | 0.00 | 55 | 1013.1 |
| 20260506011644 | 72 | 324 | 7.0 | 11.3 | 0.00 | 0.00 | 0.00 | 53 | 1013.0 |
| 20260506010031 | 74 | 325 | 7.0 | 10.4 | 0.00 | 0.00 | 0.00 | 51 | 1013.0 |
| 20260506004532 | 75 | 326 | 7.0 | 11.3 | 0.00 | 0.00 | 0.00 | 50 | 1013.0 |
| 20260506001541 | 77 | 330 | 7.0 | 11.3 | 0.00 | 0.00 | 0.00 | 48 | 1013.0 |
| 20260506000032 | 78 | 337 | 6.1 | 10.4 | 0.00 | 0.00 | 0.00 | 48 | 1013.0 |
| 20260505234529 | 77 | 312 | 5.2 | 9.6 | 0.00 | 0.00 | 0.00 | 48 | 1013.1 |
| 20260505233106 | 77 | 322 | 6.1 | 12.2 | 0.00 | 0.00 | 0.00 | 48 | 1013.2 |
| 20260505230036 | 77 | 330 | 6.1 | 11.3 | 0.00 | 0.00 | 0.00 | 48 | 1013.4 |
| 20260505223029 | 77 | 327 | 5.2 | 11.3 | 0.00 | 0.00 | 0.00 | 49 | 1013.6 |
| 20260505221532 | 77 | 330 | 6.1 | 10.4 | 0.00 | 0.00 | 0.00 | 49 | 1013.8 |
| 20260505214532 | 76 | 330 | 5.2 | 9.6 | 0.00 | 0.00 | 0.00 | 49 | 1014.0 |
| 20260505211530 | 77 | 322 | 4.3 | 7.8 | 0.00 | 0.00 | 0.00 | 48 | 1014.3 |
| 20260505210029 | 77 | 323 | 4.3 | 9.6 | 0.00 | 0.00 | 0.00 | 47 | 1014.5 |
| 20260505204530 | 77 | 324 | 4.3 | 8.7 | 0.00 | 0.00 | 0.00 | 47 | 1014.6 |
| 20260505201528 | 77 | 337 | 5.2 | 10.4 | 0.00 | 0.00 | 0.00 | 47 | 1014.7 |
| 20260505200032 | 76 | 342 | 5.2 | 9.6 | 0.00 | 0.00 | 0.00 | 48 | 1014.8 |
| 20260505194529 | 75 | 336 | 4.3 | 8.7 | 0.00 | 0.00 | 0.00 | 49 | 1014.9 |
| 20260505193147 | 73 | 318 | 4.3 | 8.7 | 0.00 | 0.00 | 0.00 | 52 | 1014.9 |
| 20260505191537 | 73 | 319 | 4.3 | 7.8 | 0.00 | 0.00 | 0.00 | 51 | 1015.0 |
| 20260505190029 | 74 | 338 | 4.3 | 9.6 | 0.00 | 0.00 | 0.00 | 51 | 1015.1 |
| 20260505184529 | 73 | 327 | 4.3 | 8.7 | 0.00 | 0.00 | 0.00 | 52 | 1015.2 |
| 20260505183030 | 72 | 318 | 3.5 | 11.3 | 0.00 | 0.00 | 0.00 | 56 | 1015.2 |
| 20260505181530 | 70 | 314 | 3.5 | 8.7 | 0.00 | 0.00 | 0.00 | 58 | 1015.2 |
| 20260505174531 | 67 | 359 | 1.7 | 7.0 | 0.00 | 0.00 | 0.00 | 64 | 1015.3 |
| 20260505173030 | 66 | 321 | 2.6 | 7.8 | 0.00 | 0.00 | 0.00 | 65 | 1015.2 |
| 20260505171531 | 65 | 334 | 2.6 | 7.8 | 0.00 | 0.00 | 0.00 | 66 | 1015.2 |
| 20260505170034 | 65 | 316 | 2.6 | 5.2 | 0.00 | 0.00 | 0.00 | 67 | 1015.2 |
| 20260505164530 | 64 | 340 | 2.6 | 7.0 | 0.00 | 0.00 | 0.00 | 67 | 1015.2 |
| 20260505163030 | 64 | 3 | 1.7 | 4.3 | 0.00 | 0.00 | 0.00 | 67 | 1015.2 |
| 20260505161530 | 65 | 45 | 1.7 | 5.2 | 0.00 | 0.00 | 0.00 | 67 | 1015.2 |
| 20260505153029 | 61 | 74 | 1.7 | 4.3 | 0.00 | 0.00 | 0.00 | 77 | 1015.0 |
| 20260505151531 | 59 | 87 | 1.7 | 5.2 | 0.00 | 0.00 | 0.00 | 81 | 1014.9 |
| 20260505130147 | 49 | 129 | 1.7 | 2.6 | 0.00 | 0.00 | 0.00 | 90 | 1013.8 |
| 20260505124530 | 49 | 139 | 1.7 | 3.5 | 0.00 | 0.00 | 0.00 | 89 | 1013.6 |
| 20260505123031 | 49 | 136 | 0.0 | 3.5 | 0.00 | 0.00 | 0.00 | 88 | 1013.5 |
| 20260505121529 | 49 | 183 | 1.7 | 2.6 | 0.00 | 0.00 | 0.00 | 87 | 1013.4 |
| 20260505120031 | 50 | 135 | 0.9 | 2.6 | 0.00 | 0.00 | 0.00 | 86 | 1013.4 |
| 20260505114529 | 51 | 135 | 0.9 | 2.6 | 0.00 | 0.00 | 0.00 | 85 | 1013.3 |
| 20260505113032 | 52 | 129 | 0.9 | 2.6 | 0.00 | 0.00 | 0.00 | 83 | 1013.2 |
| 20260505111532 | 53 | 215 | 0.9 | 3.5 | 0.00 | 0.00 | 0.00 | 81 | 1013.1 |
| 20260505101529 | 55 | 151 | 1.7 | 3.5 | 0.00 | 0.00 | 0.00 | 78 | 1012.7 |
| 20260505100038 | 55 | 180 | 0.0 | 4.3 | 0.00 | 0.00 | 0.00 | 77 | 1012.6 |
| 20260505094531 | 56 | 162 | 1.7 | 4.3 | 0.00 | 0.00 | 0.00 | 75 | 1012.6 |
| 20260505093031 | 57 | 292 | 0.0 | 0.0 | 0.00 | 0.00 | 0.00 | 74 | 1012.5 |
| 20260505091605 | 57 | 292 | 0.0 | 0.9 | 0.00 | 0.00 | 0.00 | 74 | 1012.4 |
| 20260505090030 | 57 | 274 | 0.9 | 2.6 | 0.00 | 0.00 | 0.00 | 73 | 1012.3 |
| 20260505084606 | 58 | 314 | 0.0 | 1.7 | 0.00 | 0.00 | 0.00 | 72 | 1012.3 |
| 20260505081531 | 58 | 197 | 0.0 | 2.6 | 0.00 | 0.00 | 0.00 | 72 | 1012.3 |
| 20260505080031 | 58 | 106 | 0.0 | 2.6 | 0.00 | 0.00 | 0.00 | 71 | 1012.2 |
| 20260505074529 | 57 | 102 | 0.0 | 1.7 | 0.00 | 0.00 | 0.00 | 71 | 1012.2 |
| 20260505073030 | 57 | 112 | 0.0 | 2.6 | 0.00 | 0.00 | 0.00 | 71 | 1012.1 |
| 20260505071605 | 58 | 154 | 0.9 | 3.5 | 0.00 | 0.00 | 0.00 | 70 | 1012.0 |
| 20260505063029 | 60 | 194 | 1.7 | 3.5 | 0.00 | 0.00 | 0.00 | 64 | 1011.8 |
| 20260505061529 | 60 | 160 | 0.0 | 1.7 | 0.00 | 0.00 | 0.00 | 63 | 1011.7 |
| 20260505060030 | 61 | 215 | 0.0 | 2.6 | 0.00 | 0.00 | 0.00 | 61 | 1011.7 |